Location: Nelson
(41.2830°S, 173.2830°E)
Time: 04:35:49
(UTC+12:00)

Cosmos 1356 - Pass Details

Date: 14 May 2021
Orbit: 437 x 442 km, 81.1° (Epoch: 16 June)

Event Time Altitude Azimuth Distance (km) Brightness Sun altitude
Rises 18:19:51 0° 354° (N) 2,420 7.4 -11.6°
Reaches altitude 10° 18:21:53 10° 355° (N) 1,560 6.4 -12.0°
Maximum altitude 18:25:17 78° 81° (E) 462 3.3 -12.6°
Drops below altitude 10° 18:28:45 10° 168° (SSE) 1,588 5.9 -13.2°
Enters shadow 18:30:23 - 168° (SSE) 2,273 6.7 -13.5°
